Regional Weather Roundup
Issued by NWS

Home | Current Version | Previous Version | Graphics & Text | Print | Product List | Glossary On
Versions: 1 2 3 4 5 6 7 8 9 10 11 12 13 14 15 16 17 18 19 20 21 22 23 24 25 26 27 28 29
000
ASUS45 KCYS 180810
RWRWY

WYOMING REGIONAL WEATHER ROUNDUP
NATIONAL WEATHER SERVICE CHEYENNE WY
200 AM MDT WED APR 18 2018

NOTE:  "FAIR" INDICATES FEW OR NO CLOUDS BELOW 12,000 FEET
WITH NO SIGNIFICANT WEATHER AND/OR OBSTRUCTIONS TO VISIBILITY.

WYZ001-180900-
YELLOWSTONE NATIONAL PARK

CITY           SKY/WX    TMP DP  RH WIND       PRES   REMARKS
LK YELLOWSTONE   N/A     13   8  81 CALM      30.19R
W YELLOWSTONE  NOT AVBL

$$
WYZ002>013-054>058-071-098>099-180900-
NORTHERN WYOMING

CITY           SKY/WX    TMP DP  RH WIND       PRES   REMARKS
JACKSON        CLOUDY    24  21  88 SW6       30.21R WCI  17
CODY           FAIR      36  16  44 W6        30.14R WCI  31
GREYBULL       MOCLDY    34  30  85 S6        30.14R WCI  29
WORLAND        FAIR      28  26  92 SE8       30.13R WCI  20
SHERIDAN       FAIR      33  22  63 W9        30.10R WCI  25
BUFFALO        FAIR      38  16  40 NW22      30.08R WCI  27
GILLETTE       FAIR      33  27  78 W12       30.05R WCI  24
HULETT         CLOUDY    34  32  93 S6        30.04R WCI  29
NEWCASTLE      FAIR      32  30  93 N7        30.04S WCI  26

$$
WYZ014>020-022>026-101>103-180900-
CENTRAL WYOMING

CITY           SKY/WX    TMP DP  RH WIND       PRES   REMARKS
BIG PINEY      FAIR      13   9  84 NE7       30.21R WCI   3
PINEDALE       PTSUNNY   18  16  93 NW3       30.21S
DUBOIS         FAIR      25  14  63 N5        30.15R WCI  19
LANDER         FAIR      27  14  58 VRB3      30.15R
RIVERTON       FAIR      31  11  43 NW16      30.14R WCI  20
CASPER         FAIR      25  22  88 SW13      30.12R WCI  14
DOUGLAS        FAIR      28  25  88 NW15      30.09R WCI  16

$$
WYZ021-027>030-104>119-180900-
SOUTHERN WYOMING

CITY           SKY/WX    TMP DP  RH WIND       PRES   REMARKS
EVANSTON       FAIR      22  13  68 S6        30.23R WCI  14
KEMMERER       FAIR      21  18  86 SW3       30.23R
FORT BRIDGER   FAIR      23  13  64 W7        30.27R WCI  14
ROCK SPRINGS   FAIR      25  13  60 SW13      30.22R WCI  14
DIXON          FAIR      16  13  85 CALM      30.25S
RAWLINS        FAIR      24  16  71 W15       30.17R WCI  11
SARATOGA       FAIR      23  14  68 SW15      30.17R WCI  10
LARAMIE        FAIR      18  12  77 W9        30.10R WCI   7
CHEYENNE       FAIR      31  18  58 W23G30    30.05R WCI  18
TORRINGTON     MOCLDY    33  27  78 NW12      30.05R WCI  24
PINE BLUFFS    FAIR      28  21  74 MISG      30.07S

$$




USA.gov is the U.S. government's official web portal to all federal, state and local government web resources and services.